Year,Month,Day,Hour,Minute,Value (Times are PST for barometer in hPa)
2022,12,27,00,00,977.14
2022,12,27,00,01,977.14
2022,12,27,00,02,977.14
2022,12,27,00,03,977.14
2022,12,27,00,04,977.14
2022,12,27,00,05,977.14
2022,12,27,00,06,977.14
2022,12,27,00,07,977.14
2022,12,27,00,08,977.14
2022,12,27,00,09,977.14
2022,12,27,00,10,977.14
2022,12,27,00,11,977.14
2022,12,27,00,12,977.14
2022,12,27,00,13,977.14
2022,12,27,00,14,977.14
2022,12,27,00,15,977.28
2022,12,27,00,16,977.28
2022,12,27,00,17,977.28
2022,12,27,00,18,977.28
2022,12,27,00,19,977.28
2022,12,27,00,20,977.28
2022,12,27,00,21,977.28
2022,12,27,00,22,977.28
2022,12,27,00,23,977.28
2022,12,27,00,24,977.28
2022,12,27,00,25,977.28
2022,12,27,00,26,977.28
2022,12,27,00,27,977.28
2022,12,27,00,28,977.28
2022,12,27,00,29,977.27
2022,12,27,00,30,977.08
2022,12,27,00,31,977.08
2022,12,27,00,32,977.08
2022,12,27,00,33,977.08
2022,12,27,00,34,977.08
2022,12,27,00,35,977.08
2022,12,27,00,36,977.08
2022,12,27,00,37,977.08
2022,12,27,00,38,977.08
2022,12,27,00,39,977.08
2022,12,27,00,40,977.08
2022,12,27,00,41,977.08
2022,12,27,00,42,977.08
2022,12,27,00,43,977.08
2022,12,27,00,44,977.08
2022,12,27,00,45,976.94
2022,12,27,00,46,976.94
2022,12,27,00,47,976.94
2022,12,27,00,48,976.94
2022,12,27,00,49,976.94
2022,12,27,00,50,976.94
2022,12,27,00,51,976.94
2022,12,27,00,52,976.94
2022,12,27,00,53,976.94
2022,12,27,00,54,976.94
2022,12,27,00,55,976.94
2022,12,27,00,56,976.94
2022,12,27,00,57,976.94
2022,12,27,00,58,976.94
2022,12,27,00,59,976.94
2022,12,27,01,00,976.30
2022,12,27,01,01,976.30
2022,12,27,01,02,976.30
2022,12,27,01,03,976.30
2022,12,27,01,04,976.30
2022,12,27,01,05,976.30
2022,12,27,01,06,976.30
2022,12,27,01,07,976.30
2022,12,27,01,08,976.30
2022,12,27,01,09,976.30
2022,12,27,01,10,976.30
2022,12,27,01,11,976.30
2022,12,27,01,12,976.30
2022,12,27,01,13,976.30
2022,12,27,01,14,976.30
2022,12,27,01,15,975.89
2022,12,27,01,16,975.89
2022,12,27,01,17,975.89
2022,12,27,01,18,975.89
2022,12,27,01,19,975.89
2022,12,27,01,20,975.89
2022,12,27,01,21,975.89
2022,12,27,01,22,975.89
2022,12,27,01,23,975.89
2022,12,27,01,24,975.89
2022,12,27,01,25,975.89
2022,12,27,01,26,975.89
2022,12,27,01,27,975.89
2022,12,27,01,28,975.89
2022,12,27,01,29,975.89
2022,12,27,01,30,975.96
2022,12,27,01,31,975.96
2022,12,27,01,32,975.96
2022,12,27,01,33,975.96
2022,12,27,01,34,975.96
2022,12,27,01,35,975.96
2022,12,27,01,36,975.96
2022,12,27,01,37,975.96
2022,12,27,01,38,975.96
2022,12,27,01,39,975.96
2022,12,27,01,40,975.96
2022,12,27,01,41,975.96
2022,12,27,01,42,975.96
2022,12,27,01,43,975.96
2022,12,27,01,44,975.96
2022,12,27,01,45,975.96
2022,12,27,01,46,975.96
2022,12,27,01,47,975.96
2022,12,27,01,48,975.96
2022,12,27,01,49,975.96
2022,12,27,01,50,975.96
2022,12,27,01,51,975.96
2022,12,27,01,52,975.96
2022,12,27,01,53,975.96
2022,12,27,01,54,975.96
2022,12,27,01,55,975.96
2022,12,27,01,56,975.96
2022,12,27,01,57,975.96
2022,12,27,01,58,975.96
2022,12,27,01,59,975.91
2022,12,27,02,00,974.94
2022,12,27,02,01,974.94
2022,12,27,02,02,974.94
2022,12,27,02,03,974.94
2022,12,27,02,04,974.94
2022,12,27,02,05,974.94
2022,12,27,02,06,974.94
2022,12,27,02,07,974.94
2022,12,27,02,08,974.94
2022,12,27,02,09,974.94
2022,12,27,02,10,974.94
2022,12,27,02,11,974.94
2022,12,27,02,12,974.94
2022,12,27,02,13,974.94
2022,12,27,02,14,974.94
2022,12,27,02,15,974.81
2022,12,27,02,16,974.81
2022,12,27,02,17,974.81
2022,12,27,02,18,974.81
2022,12,27,02,19,974.81
2022,12,27,02,20,974.81
2022,12,27,02,21,974.81
2022,12,27,02,22,974.81
2022,12,27,02,23,974.81
2022,12,27,02,24,974.81
2022,12,27,02,25,974.81
2022,12,27,02,26,974.81
2022,12,27,02,27,974.81
2022,12,27,02,28,974.81
2022,12,27,02,29,974.81
2022,12,27,02,30,974.87
2022,12,27,02,31,974.87
2022,12,27,02,32,974.87
2022,12,27,02,33,974.87
2022,12,27,02,34,974.87
2022,12,27,02,35,974.87
2022,12,27,02,36,974.87
2022,12,27,02,37,974.87
2022,12,27,02,38,974.87
2022,12,27,02,39,974.87
2022,12,27,02,40,974.87
2022,12,27,02,41,974.87
2022,12,27,02,42,974.87
2022,12,27,02,43,974.87
2022,12,27,02,44,974.87
2022,12,27,02,45,974.26
2022,12,27,02,46,974.26
2022,12,27,02,47,974.26
2022,12,27,02,48,974.26
2022,12,27,02,49,974.26
2022,12,27,02,50,974.26
2022,12,27,02,51,974.26
2022,12,27,02,52,974.26
2022,12,27,02,53,974.26
2022,12,27,02,54,974.26
2022,12,27,02,55,974.26
2022,12,27,02,56,974.26
2022,12,27,02,57,974.26
2022,12,27,02,58,974.26
2022,12,27,02,59,974.26
2022,12,27,03,00,973.79
2022,12,27,03,01,973.79
2022,12,27,03,02,973.79
2022,12,27,03,03,973.79
2022,12,27,03,04,973.79
2022,12,27,03,05,973.79
2022,12,27,03,06,973.79
2022,12,27,03,07,973.79
2022,12,27,03,08,973.79
2022,12,27,03,09,973.79
2022,12,27,03,10,973.79
2022,12,27,03,11,973.79
2022,12,27,03,12,973.79
2022,12,27,03,13,973.79
2022,12,27,03,14,973.77
2022,12,27,03,15,973.35
2022,12,27,03,16,973.35
2022,12,27,03,17,973.35
2022,12,27,03,18,973.35
2022,12,27,03,19,973.35
2022,12,27,03,20,973.35
2022,12,27,03,21,973.35
2022,12,27,03,22,973.35
2022,12,27,03,23,973.35
2022,12,27,03,24,973.35
2022,12,27,03,25,973.35
2022,12,27,03,26,973.35
2022,12,27,03,27,973.35
2022,12,27,03,28,973.35
2022,12,27,03,29,973.35
2022,12,27,03,30,973.18
2022,12,27,03,31,973.18
2022,12,27,03,32,973.18
2022,12,27,03,33,973.18
2022,12,27,03,34,973.18
2022,12,27,03,35,973.18
2022,12,27,03,36,973.18
2022,12,27,03,37,973.18
2022,12,27,03,38,973.18
2022,12,27,03,39,973.18
2022,12,27,03,40,973.18
2022,12,27,03,41,973.18
2022,12,27,03,42,973.18
2022,12,27,03,43,973.18
2022,12,27,03,44,973.18
2022,12,27,03,45,972.77
2022,12,27,03,46,972.77
2022,12,27,03,47,972.77
2022,12,27,03,48,972.77
2022,12,27,03,49,972.77
2022,12,27,03,50,972.77
2022,12,27,03,51,972.77
2022,12,27,03,52,972.77
2022,12,27,03,53,972.77
2022,12,27,03,54,972.77
2022,12,27,03,55,972.77
2022,12,27,03,56,972.77
2022,12,27,03,57,972.77
2022,12,27,03,58,972.77
2022,12,27,03,59,972.77
2022,12,27,04,00,972.77
2022,12,27,04,01,972.77
2022,12,27,04,02,972.77
2022,12,27,04,03,972.77
2022,12,27,04,04,972.77
2022,12,27,04,05,972.77
2022,12,27,04,06,972.77
2022,12,27,04,07,972.77
2022,12,27,04,08,972.77
2022,12,27,04,09,972.77
2022,12,27,04,10,972.77
2022,12,27,04,11,972.77
2022,12,27,04,12,972.77
2022,12,27,04,13,972.77
2022,12,27,04,14,972.76
2022,12,27,04,15,972.50
2022,12,27,04,16,972.50
2022,12,27,04,17,972.50
2022,12,27,04,18,972.50
2022,12,27,04,19,972.50
2022,12,27,04,20,972.50
2022,12,27,04,21,972.50
2022,12,27,04,22,972.50
2022,12,27,04,23,972.50
2022,12,27,04,24,972.50
2022,12,27,04,25,972.50
2022,12,27,04,26,972.50
2022,12,27,04,27,972.50
2022,12,27,04,28,972.50
2022,12,27,04,29,972.50
2022,12,27,04,30,972.20
2022,12,27,04,31,972.20
2022,12,27,04,32,972.20
2022,12,27,04,33,972.20
2022,12,27,04,34,972.20
2022,12,27,04,35,972.20
2022,12,27,04,36,972.20
2022,12,27,04,37,972.20
2022,12,27,04,38,972.20
2022,12,27,04,39,972.20
2022,12,27,04,40,972.20
2022,12,27,04,41,972.20
2022,12,27,04,42,972.20
2022,12,27,04,43,972.20
2022,12,27,04,44,972.20
2022,12,27,04,45,971.72
2022,12,27,04,46,971.72
2022,12,27,04,47,971.72
2022,12,27,04,48,971.72
2022,12,27,04,49,971.72
2022,12,27,04,50,971.72
2022,12,27,04,51,971.72
2022,12,27,04,52,971.72
2022,12,27,04,53,971.72
2022,12,27,04,54,971.72
2022,12,27,04,55,971.72
2022,12,27,04,56,971.72
2022,12,27,04,57,971.72
2022,12,27,04,58,971.72
2022,12,27,04,59,971.70
2022,12,27,05,00,971.32
2022,12,27,05,01,971.32
2022,12,27,05,02,971.32
2022,12,27,05,03,971.32
2022,12,27,05,04,971.32
2022,12,27,05,05,971.32
2022,12,27,05,06,971.32
2022,12,27,05,07,971.32
2022,12,27,05,08,971.32
2022,12,27,05,09,971.32
2022,12,27,05,10,971.32
2022,12,27,05,11,971.32
2022,12,27,05,12,971.32
2022,12,27,05,13,971.32
2022,12,27,05,14,971.32
2022,12,27,05,15,971.22
2022,12,27,05,16,971.22
2022,12,27,05,17,971.22
2022,12,27,05,18,971.22
2022,12,27,05,19,971.22
2022,12,27,05,20,971.22
2022,12,27,05,21,971.22
2022,12,27,05,22,971.22
2022,12,27,05,23,971.22
2022,12,27,05,24,971.22
2022,12,27,05,25,971.22
2022,12,27,05,26,971.22
2022,12,27,05,27,971.22
2022,12,27,05,28,971.22
2022,12,27,05,29,971.22
2022,12,27,05,30,971.15
2022,12,27,05,31,971.15
2022,12,27,05,32,971.15
2022,12,27,05,33,971.15
2022,12,27,05,34,971.15
2022,12,27,05,35,971.15
2022,12,27,05,36,971.15
2022,12,27,05,37,971.15
2022,12,27,05,38,971.15
2022,12,27,05,39,971.15
2022,12,27,05,40,971.15
2022,12,27,05,41,971.15
2022,12,27,05,42,971.15
2022,12,27,05,43,971.15
2022,12,27,05,44,971.15
2022,12,27,05,45,970.30
2022,12,27,05,46,970.30
2022,12,27,05,47,970.30
2022,12,27,05,48,970.30
2022,12,27,05,49,970.30
2022,12,27,05,50,970.30
2022,12,27,05,51,970.30
2022,12,27,05,52,970.30
2022,12,27,05,53,970.30
2022,12,27,05,54,970.30
2022,12,27,05,55,970.30
2022,12,27,05,56,970.30
2022,12,27,05,57,970.30
2022,12,27,05,58,970.30
2022,12,27,05,59,970.30
2022,12,27,06,00,970.34
2022,12,27,06,01,970.34
2022,12,27,06,02,970.34
2022,12,27,06,03,970.34
2022,12,27,06,04,970.34
2022,12,27,06,05,970.34
2022,12,27,06,06,970.34
2022,12,27,06,07,970.34
2022,12,27,06,08,970.34
2022,12,27,06,09,970.34
2022,12,27,06,10,970.34
2022,12,27,06,11,970.34
2022,12,27,06,12,970.34
2022,12,27,06,13,970.34
2022,12,27,06,14,970.34
2022,12,27,06,15,970.17
2022,12,27,06,16,970.17
2022,12,27,06,17,970.17
2022,12,27,06,18,970.17
2022,12,27,06,19,970.17
2022,12,27,06,20,970.17
2022,12,27,06,21,970.17
2022,12,27,06,22,970.17
2022,12,27,06,23,970.17
2022,12,27,06,24,970.17
2022,12,27,06,25,970.17
2022,12,27,06,26,970.17
2022,12,27,06,27,970.17
2022,12,27,06,28,970.17
2022,12,27,06,29,970.18
2022,12,27,06,30,970.40
2022,12,27,06,31,970.40
2022,12,27,06,32,970.40
2022,12,27,06,33,970.40
2022,12,27,06,34,970.40
2022,12,27,06,35,970.40
2022,12,27,06,36,970.40
2022,12,27,06,37,970.40
2022,12,27,06,38,970.40
2022,12,27,06,39,970.40
2022,12,27,06,40,970.40
2022,12,27,06,41,970.40
2022,12,27,06,42,970.40
2022,12,27,06,43,970.40
2022,12,27,06,44,970.40
2022,12,27,06,45,970.20
2022,12,27,06,46,970.20
2022,12,27,06,47,970.20
2022,12,27,06,48,970.20
2022,12,27,06,49,970.20
2022,12,27,06,50,970.20
2022,12,27,06,51,970.20
2022,12,27,06,52,970.20
2022,12,27,06,53,970.20
2022,12,27,06,54,970.20
2022,12,27,06,55,970.20
2022,12,27,06,56,970.20
2022,12,27,06,57,970.20
2022,12,27,06,58,970.20
2022,12,27,06,59,970.21
2022,12,27,07,00,970.40
2022,12,27,07,01,970.40
2022,12,27,07,02,970.40
2022,12,27,07,03,970.40
2022,12,27,07,04,970.40
2022,12,27,07,05,970.40
2022,12,27,07,06,970.40
2022,12,27,07,07,970.40
2022,12,27,07,08,970.40
2022,12,27,07,09,970.40
2022,12,27,07,10,970.40
2022,12,27,07,11,970.40
2022,12,27,07,12,970.40
2022,12,27,07,13,970.40
2022,12,27,07,14,970.40
2022,12,27,07,15,970.17
2022,12,27,07,16,970.17
2022,12,27,07,17,970.17
2022,12,27,07,18,970.17
2022,12,27,07,19,970.17
2022,12,27,07,20,970.17
2022,12,27,07,21,970.17
2022,12,27,07,22,970.17
2022,12,27,07,23,970.17
2022,12,27,07,24,970.17
2022,12,27,07,25,970.17
2022,12,27,07,26,970.17
2022,12,27,07,27,970.17
2022,12,27,07,28,970.17
2022,12,27,07,29,970.17
2022,12,27,07,30,970.03
2022,12,27,07,31,970.03
2022,12,27,07,32,970.03
2022,12,27,07,33,970.03
2022,12,27,07,34,970.03
2022,12,27,07,35,970.03
2022,12,27,07,36,970.03
2022,12,27,07,37,970.03
2022,12,27,07,38,970.03
2022,12,27,07,39,970.03
2022,12,27,07,40,970.03
2022,12,27,07,41,970.03
2022,12,27,07,42,970.03
2022,12,27,07,43,970.03
2022,12,27,07,44,970.03
2022,12,27,07,45,970.03
2022,12,27,07,46,970.03
2022,12,27,07,47,970.03
2022,12,27,07,48,970.03
2022,12,27,07,49,970.03
2022,12,27,07,50,970.03
2022,12,27,07,51,970.03
2022,12,27,07,52,970.03
2022,12,27,07,53,970.03
2022,12,27,07,54,970.03
2022,12,27,07,55,970.03
2022,12,27,07,56,970.03
2022,12,27,07,57,970.03
2022,12,27,07,58,970.03
2022,12,27,07,59,970.03
2022,12,27,08,00,969.66
2022,12,27,08,01,969.66
2022,12,27,08,02,969.66
2022,12,27,08,03,969.66
2022,12,27,08,04,969.66
2022,12,27,08,05,969.66
2022,12,27,08,06,969.66
2022,12,27,08,07,969.66
2022,12,27,08,08,969.66
2022,12,27,08,09,969.66
2022,12,27,08,10,969.66
2022,12,27,08,11,969.66
2022,12,27,08,12,969.66
2022,12,27,08,13,969.66
2022,12,27,08,14,969.66
2022,12,27,08,15,970.10
2022,12,27,08,16,970.10
2022,12,27,08,17,970.10
2022,12,27,08,18,970.10
2022,12,27,08,19,970.10
2022,12,27,08,20,970.10
2022,12,27,08,21,970.10
2022,12,27,08,22,970.10
2022,12,27,08,23,970.10
2022,12,27,08,24,970.10
2022,12,27,08,25,970.10
2022,12,27,08,26,970.10
2022,12,27,08,27,970.10
2022,12,27,08,28,970.10
2022,12,27,08,29,970.10
2022,12,27,08,30,970.64
2022,12,27,08,31,970.64
2022,12,27,08,32,970.64
2022,12,27,08,33,970.64
2022,12,27,08,34,970.64
2022,12,27,08,35,970.64
2022,12,27,08,36,970.64
2022,12,27,08,37,970.64
2022,12,27,08,38,970.64
2022,12,27,08,39,970.64
2022,12,27,08,40,970.64
2022,12,27,08,41,970.64
2022,12,27,08,42,970.64
2022,12,27,08,43,970.64
2022,12,27,08,44,970.64
2022,12,27,08,45,970.71
2022,12,27,08,46,970.71
2022,12,27,08,47,970.71
2022,12,27,08,48,970.71
2022,12,27,08,49,970.71
2022,12,27,08,50,970.71
2022,12,27,08,51,970.71
2022,12,27,08,52,970.71
2022,12,27,08,53,970.71
2022,12,27,08,54,970.71
2022,12,27,08,55,970.71
2022,12,27,08,56,970.71
2022,12,27,08,57,970.71
2022,12,27,08,58,970.71
2022,12,27,08,59,970.71
2022,12,27,09,00,971.18
2022,12,27,09,01,971.18
2022,12,27,09,02,971.18
2022,12,27,09,03,971.18
2022,12,27,09,04,971.18
2022,12,27,09,05,971.18
2022,12,27,09,06,971.18
2022,12,27,09,07,971.18
2022,12,27,09,08,971.18
2022,12,27,09,09,971.18
2022,12,27,09,10,971.18
2022,12,27,09,11,971.18
2022,12,27,09,12,971.18
2022,12,27,09,13,971.18
2022,12,27,09,14,971.18
2022,12,27,09,15,971.22
2022,12,27,09,16,971.22
2022,12,27,09,17,971.22
2022,12,27,09,18,971.22
2022,12,27,09,19,971.22
2022,12,27,09,20,971.22
2022,12,27,09,21,971.22
2022,12,27,09,22,971.22
2022,12,27,09,23,971.22
2022,12,27,09,24,971.22
2022,12,27,09,25,971.22
2022,12,27,09,26,971.22
2022,12,27,09,27,971.22
2022,12,27,09,28,971.22
2022,12,27,09,29,971.22
2022,12,27,09,30,971.66
2022,12,27,09,31,971.66
2022,12,27,09,32,971.66
2022,12,27,09,33,971.66
2022,12,27,09,34,971.66
2022,12,27,09,35,971.66
2022,12,27,09,36,971.66
2022,12,27,09,37,971.66
2022,12,27,09,38,971.66
2022,12,27,09,39,971.66
2022,12,27,09,40,971.66
2022,12,27,09,41,971.66
2022,12,27,09,42,971.66
2022,12,27,09,43,971.66
2022,12,27,09,44,971.66
2022,12,27,09,45,971.72
2022,12,27,09,46,971.72
2022,12,27,09,47,971.72
2022,12,27,09,48,971.72
2022,12,27,09,49,971.72
2022,12,27,09,50,971.72
2022,12,27,09,51,971.72
2022,12,27,09,52,971.72
2022,12,27,09,53,971.72
2022,12,27,09,54,971.72
2022,12,27,09,55,971.72
2022,12,27,09,56,971.72
2022,12,27,09,57,971.72
2022,12,27,09,58,971.72
2022,12,27,09,59,971.72
2022,12,27,10,00,971.76
2022,12,27,10,01,971.76
2022,12,27,10,02,971.76
2022,12,27,10,03,971.76
2022,12,27,10,04,971.76
2022,12,27,10,05,971.76
2022,12,27,10,06,971.76
2022,12,27,10,07,971.76
2022,12,27,10,08,971.76
2022,12,27,10,09,971.76
2022,12,27,10,10,971.76
2022,12,27,10,11,971.76
2022,12,27,10,12,971.76
2022,12,27,10,13,971.76
2022,12,27,10,14,971.76
2022,12,27,10,15,972.13
2022,12,27,10,16,972.13
2022,12,27,10,17,972.13
2022,12,27,10,18,972.13
2022,12,27,10,19,972.13
2022,12,27,10,20,972.13
2022,12,27,10,21,972.13
2022,12,27,10,22,972.13
2022,12,27,10,23,972.13
2022,12,27,10,24,972.13
2022,12,27,10,25,972.13
2022,12,27,10,26,972.13
2022,12,27,10,27,972.13
2022,12,27,10,28,972.13
2022,12,27,10,29,972.13
2022,12,27,10,30,972.27
2022,12,27,10,31,972.27
2022,12,27,10,32,972.27
2022,12,27,10,33,972.27
2022,12,27,10,34,972.27
2022,12,27,10,35,972.27
2022,12,27,10,36,972.27
2022,12,27,10,37,972.27
2022,12,27,10,38,972.27
2022,12,27,10,39,972.27
2022,12,27,10,40,972.27
2022,12,27,10,41,972.27
2022,12,27,10,42,972.27
2022,12,27,10,43,972.27
2022,12,27,10,44,972.27
2022,12,27,10,45,972.33
2022,12,27,10,46,972.33
2022,12,27,10,47,972.33
2022,12,27,10,48,972.33
2022,12,27,10,49,972.33
2022,12,27,10,50,972.33
2022,12,27,10,51,972.33
2022,12,27,10,52,972.33
2022,12,27,10,53,972.33
2022,12,27,10,54,972.33
2022,12,27,10,55,972.33
2022,12,27,10,56,972.33
2022,12,27,10,57,972.33
2022,12,27,10,58,972.33
2022,12,27,10,59,972.33
2022,12,27,11,00,972.54
2022,12,27,11,01,972.54
2022,12,27,11,02,972.54
2022,12,27,11,03,972.54
2022,12,27,11,04,972.54
2022,12,27,11,05,972.54
2022,12,27,11,06,972.54
2022,12,27,11,07,972.54
2022,12,27,11,08,972.54
2022,12,27,11,09,972.54
2022,12,27,11,10,972.54
2022,12,27,11,11,972.54
2022,12,27,11,12,972.54
2022,12,27,11,13,972.54
2022,12,27,11,14,972.54
2022,12,27,11,15,972.77
2022,12,27,11,16,972.77
2022,12,27,11,17,972.77
2022,12,27,11,18,972.77
2022,12,27,11,19,972.77
2022,12,27,11,20,972.77
2022,12,27,11,21,972.77
2022,12,27,11,22,972.77
2022,12,27,11,23,972.77
2022,12,27,11,24,972.77
2022,12,27,11,25,972.77
2022,12,27,11,26,972.77
2022,12,27,11,27,972.77
2022,12,27,11,28,972.77
2022,12,27,11,29,972.77
2022,12,27,11,30,972.98
2022,12,27,11,31,972.98
2022,12,27,11,32,972.98
2022,12,27,11,33,972.98
2022,12,27,11,34,972.98
2022,12,27,11,35,972.98
2022,12,27,11,36,972.98
2022,12,27,11,37,972.98
2022,12,27,11,38,972.98
2022,12,27,11,39,972.98
2022,12,27,11,40,972.98
2022,12,27,11,41,972.98
2022,12,27,11,42,972.98
2022,12,27,11,43,972.98
2022,12,27,11,44,972.98
2022,12,27,11,45,973.15
2022,12,27,11,46,973.15
2022,12,27,11,47,973.15
2022,12,27,11,48,973.15
2022,12,27,11,49,973.15
2022,12,27,11,50,973.15
2022,12,27,11,51,973.15
2022,12,27,11,52,973.15
2022,12,27,11,53,973.15
2022,12,27,11,54,973.15
2022,12,27,11,55,973.15
2022,12,27,11,56,973.15
2022,12,27,11,57,973.15
2022,12,27,11,58,973.15
2022,12,27,11,59,973.15
2022,12,27,12,00,973.25
2022,12,27,12,01,973.25
2022,12,27,12,02,973.25
2022,12,27,12,03,973.25
2022,12,27,12,04,973.25
2022,12,27,12,05,973.25
2022,12,27,12,06,973.25
2022,12,27,12,07,973.25
2022,12,27,12,08,973.25
2022,12,27,12,09,973.25
2022,12,27,12,10,973.25
2022,12,27,12,11,973.25
2022,12,27,12,12,973.25
2022,12,27,12,13,973.25
2022,12,27,12,14,973.25
2022,12,27,12,15,973.38
2022,12,27,12,16,973.38
2022,12,27,12,17,973.38
2022,12,27,12,18,973.38
2022,12,27,12,19,973.38
2022,12,27,12,20,973.38
2022,12,27,12,21,973.38
2022,12,27,12,22,973.38
2022,12,27,12,23,973.38
2022,12,27,12,24,973.38
2022,12,27,12,25,973.38
2022,12,27,12,26,973.38
2022,12,27,12,27,973.38
2022,12,27,12,28,973.38
2022,12,27,12,29,973.38
2022,12,27,12,30,973.79
2022,12,27,12,31,973.79
2022,12,27,12,32,973.79
2022,12,27,12,33,973.79
2022,12,27,12,34,973.79
2022,12,27,12,35,973.79
2022,12,27,12,36,973.79
2022,12,27,12,37,973.79
2022,12,27,12,38,973.79
2022,12,27,12,39,973.79
2022,12,27,12,40,973.79
2022,12,27,12,41,973.79
2022,12,27,12,42,973.79
2022,12,27,12,43,973.79
2022,12,27,12,44,973.79
2022,12,27,12,45,973.96
2022,12,27,12,46,973.96
2022,12,27,12,47,973.96
2022,12,27,12,48,973.96
2022,12,27,12,49,973.96
2022,12,27,12,50,973.96
2022,12,27,12,51,973.96
2022,12,27,12,52,973.96
2022,12,27,12,53,973.96
2022,12,27,12,54,973.96
2022,12,27,12,55,973.96
2022,12,27,12,56,973.96
2022,12,27,12,57,973.96
2022,12,27,12,58,973.96
2022,12,27,12,59,973.96
2022,12,27,13,00,974.33
2022,12,27,13,01,974.33
2022,12,27,13,02,974.33
2022,12,27,13,03,974.33
2022,12,27,13,04,974.33
2022,12,27,13,05,974.33
2022,12,27,13,06,974.33
2022,12,27,13,07,974.33
2022,12,27,13,08,974.33
2022,12,27,13,09,974.33
2022,12,27,13,10,974.33
2022,12,27,13,11,974.33
2022,12,27,13,12,974.33
2022,12,27,13,13,974.33
2022,12,27,13,14,974.33
2022,12,27,13,15,974.57
2022,12,27,13,16,974.57
2022,12,27,13,17,974.57
2022,12,27,13,18,974.57
2022,12,27,13,19,974.57
2022,12,27,13,20,974.57
2022,12,27,13,21,974.57
2022,12,27,13,22,974.57
2022,12,27,13,23,974.57
2022,12,27,13,24,974.57
2022,12,27,13,25,974.57
2022,12,27,13,26,974.57
2022,12,27,13,27,974.57
2022,12,27,13,28,974.57
2022,12,27,13,29,974.57
2022,12,27,13,30,974.81
2022,12,27,13,31,974.81
2022,12,27,13,32,974.81
2022,12,27,13,33,974.81
2022,12,27,13,34,974.81
2022,12,27,13,35,974.81
2022,12,27,13,36,974.81
2022,12,27,13,37,974.81
2022,12,27,13,38,974.81
2022,12,27,13,39,974.81
2022,12,27,13,40,974.81
2022,12,27,13,41,974.81
2022,12,27,13,42,974.81
2022,12,27,13,43,974.81
2022,12,27,13,44,974.81
2022,12,27,13,45,975.14
2022,12,27,13,46,975.14
2022,12,27,13,47,975.14
2022,12,27,13,48,975.14
2022,12,27,13,49,975.14
2022,12,27,13,50,975.14
2022,12,27,13,51,975.14
2022,12,27,13,52,975.14
2022,12,27,13,53,975.14
2022,12,27,13,54,975.14
2022,12,27,13,55,975.14
2022,12,27,13,56,975.14
2022,12,27,13,57,975.14
2022,12,27,13,58,975.14
2022,12,27,13,59,975.14
2022,12,27,14,00,975.48
2022,12,27,14,01,975.48
2022,12,27,14,02,975.48
2022,12,27,14,03,975.48
2022,12,27,14,04,975.48
2022,12,27,14,05,975.48
2022,12,27,14,06,975.48
2022,12,27,14,07,975.48
2022,12,27,14,08,975.48
2022,12,27,14,09,975.48
2022,12,27,14,10,975.48
2022,12,27,14,11,975.48
2022,12,27,14,12,975.48
2022,12,27,14,13,975.48
2022,12,27,14,14,975.48
2022,12,27,14,15,975.92
2022,12,27,14,16,975.92
2022,12,27,14,17,975.92
2022,12,27,14,18,975.92
2022,12,27,14,19,975.92
2022,12,27,14,20,975.92
2022,12,27,14,21,975.92
2022,12,27,14,22,975.92
2022,12,27,14,23,975.92
2022,12,27,14,24,975.92
2022,12,27,14,25,975.92
2022,12,27,14,26,975.92
2022,12,27,14,27,975.92
2022,12,27,14,28,975.92
2022,12,27,14,29,975.92
2022,12,27,14,30,976.40
2022,12,27,14,31,976.40
2022,12,27,14,32,976.40
2022,12,27,14,33,976.40
2022,12,27,14,34,976.40
2022,12,27,14,35,976.40
2022,12,27,14,36,976.40
2022,12,27,14,37,976.40
2022,12,27,14,38,976.40
2022,12,27,14,39,976.40
2022,12,27,14,40,976.40
2022,12,27,14,41,976.40
2022,12,27,14,42,976.40
2022,12,27,14,43,976.40
2022,12,27,14,44,976.40
2022,12,27,14,45,976.91
2022,12,27,14,46,976.91
2022,12,27,14,47,976.91
2022,12,27,14,48,976.91
2022,12,27,14,49,976.91
2022,12,27,14,50,976.91
2022,12,27,14,51,976.91
2022,12,27,14,52,976.91
2022,12,27,14,53,976.91
2022,12,27,14,54,976.91
2022,12,27,14,55,976.91
2022,12,27,14,56,976.91
2022,12,27,14,57,976.91
2022,12,27,14,58,976.91
2022,12,27,14,59,976.91
2022,12,27,15,00,977.41
2022,12,27,15,01,977.41
2022,12,27,15,02,977.41
2022,12,27,15,03,977.41
2022,12,27,15,04,977.41
2022,12,27,15,05,977.41
2022,12,27,15,06,977.41
2022,12,27,15,07,977.41
2022,12,27,15,08,977.41
2022,12,27,15,09,977.41
2022,12,27,15,10,977.41
2022,12,27,15,11,977.41
2022,12,27,15,12,977.41
2022,12,27,15,13,977.41
2022,12,27,15,14,977.41
2022,12,27,15,15,977.72
2022,12,27,15,16,977.72
2022,12,27,15,17,977.72
2022,12,27,15,18,977.72
2022,12,27,15,19,977.72
2022,12,27,15,20,977.72
2022,12,27,15,21,977.72
2022,12,27,15,22,977.72
2022,12,27,15,23,977.72
2022,12,27,15,24,977.72
2022,12,27,15,25,977.72
2022,12,27,15,26,977.72
2022,12,27,15,27,977.72
2022,12,27,15,28,977.72
2022,12,27,15,29,977.72
2022,12,27,15,30,978.23
2022,12,27,15,31,978.23
2022,12,27,15,32,978.23
2022,12,27,15,33,978.23
2022,12,27,15,34,978.23
2022,12,27,15,35,978.23
2022,12,27,15,36,978.23
2022,12,27,15,37,978.23
2022,12,27,15,38,978.23
2022,12,27,15,39,978.23
2022,12,27,15,40,978.23
2022,12,27,15,41,978.23
2022,12,27,15,42,978.23
2022,12,27,15,43,978.23
2022,12,27,15,44,978.23
2022,12,27,15,45,978.70
2022,12,27,15,46,978.70
2022,12,27,15,47,978.70
2022,12,27,15,48,978.70
2022,12,27,15,49,978.70
2022,12,27,15,50,978.70
2022,12,27,15,51,978.70
2022,12,27,15,52,978.70
2022,12,27,15,53,978.70
2022,12,27,15,54,978.70
2022,12,27,15,55,978.70
2022,12,27,15,56,978.70
2022,12,27,15,57,978.70
2022,12,27,15,58,978.70
2022,12,27,15,59,978.70
2022,12,27,16,00,979.38
2022,12,27,16,01,979.38
2022,12,27,16,02,979.38
2022,12,27,16,03,979.38
2022,12,27,16,04,979.38
2022,12,27,16,05,979.38
2022,12,27,16,06,979.38
2022,12,27,16,07,979.38
2022,12,27,16,08,979.38
2022,12,27,16,09,979.38
2022,12,27,16,10,979.38
2022,12,27,16,11,979.38
2022,12,27,16,12,979.38
2022,12,27,16,13,979.38
2022,12,27,16,14,979.38
2022,12,27,16,15,979.85
2022,12,27,16,16,979.85
2022,12,27,16,17,979.85
2022,12,27,16,18,979.85
2022,12,27,16,19,979.85
2022,12,27,16,20,979.85
2022,12,27,16,21,979.85
2022,12,27,16,22,979.85
2022,12,27,16,23,979.85
2022,12,27,16,24,979.85
2022,12,27,16,25,979.85
2022,12,27,16,26,979.85
2022,12,27,16,27,979.85
2022,12,27,16,28,979.85
2022,12,27,16,29,979.85
2022,12,27,16,30,980.08
2022,12,27,16,31,980.09
2022,12,27,16,32,980.09
2022,12,27,16,33,980.09
2022,12,27,16,34,980.09
2022,12,27,16,35,980.09
2022,12,27,16,36,980.09